Regional Weather Roundup
Issued by NWS

Home | Current Version | Previous Version | Graphics & Text | Print | Product List | Glossary On
Versions: 1 2 3 4 5 6 7 8 9 10 11 12 13 14 15 16 17 18 19 20 21 22 23 24 25 26 27
000
ASUS45 KCYS 081010
RWRWY

WYOMING REGIONAL WEATHER ROUNDUP
NATIONAL WEATHER SERVICE CHEYENNE WY
300 AM MST THU DEC 08 2016

NOTE:  "FAIR" INDICATES FEW OR NO CLOUDS BELOW 12,000 FEET
WITH NO SIGNIFICANT WEATHER AND/OR OBSTRUCTIONS TO VISIBILITY.

WYZ001-081100-
YELLOWSTONE NATIONAL PARK

CITY           SKY/WX    TMP DP  RH WIND       PRES   REMARKS
LK YELLOWSTONE   N/A    -10 -13  86 NW3       30.16S
W YELLOWSTONE  NOT AVBL

$$
WYZ002>013-054>058-071-098>099-081100-
NORTHERN WYOMING

CITY           SKY/WX    TMP DP  RH WIND       PRES   REMARKS
JACKSON        FAIR     -17 -18  91 N3        30.28R
CODY           FAIR     -13 -17  82 CALM      30.37F
GREYBULL       FAIR      -3  -9  75 CALM      30.48S
WORLAND        FAIR     -10 -14  82 CALM      30.44F
SHERIDAN       FAIR      -9 -15  75 CALM      30.48S
BUFFALO        FAIR      -2 -13  59 S8        30.39S WCI -17
GILLETTE       FAIR     -10 -14  82 CALM      30.45S
HULETT         FAIR      -8 -13  77 S8        30.46S WCI -23
NEWCASTLE      FAIR      -9 -15  77 NW3       30.47S

$$
WYZ014>020-022>026-101>103-081100-
CENTRAL WYOMING

CITY           SKY/WX    TMP DP  RH WIND       PRES   REMARKS
BIG PINEY      FAIR     -18 -23  77 CALM      30.25R
PINEDALE       FAIR     -18 -26  69 W13       30.25S WCI -41
DUBOIS         FAIR     -11 -17  77 W10       30.17S WCI -30
LANDER         FAIR      -2 -10  69 SW7       30.31F WCI -15
RIVERTON       FAIR      -2  -6  83 CALM      30.33S
CASPER         FAIR     -29 -33  81 CALM      30.37S
DOUGLAS        FAIR     -17 -23  73 CALM      30.42F

$$
WYZ021-027>030-104>119-081100-
SOUTHERN WYOMING

CITY           SKY/WX    TMP DP  RH WIND       PRES   REMARKS
EVANSTON       FAIR       1  -9  62 E8        30.18S WCI -13
KEMMERER         N/A     -8 -15  71 N9        30.20S WCI -25
FORT BRIDGER   FAIR      -2  -6  84 NW3       30.24S
ROCK SPRINGS   FAIR      -5 -10  79 E6        30.24R WCI -18
DIXON          FAIR      -1  -9  68 E8        30.30F WCI -16
RAWLINS        FAIR     -15 -21  74 CALM      30.24F
SARATOGA       FAIR      -9 -15  77 CALM      30.24S
LARAMIE        FAIR     -19 -24  77 CALM      30.20F
CHEYENNE       FAIR     -13 -18  78 W6        30.31S WCI -27
TORRINGTON     FAIR      -8 -13  78 NW8       30.48S WCI -24
PINE BLUFFS    FAIR     -17 -22  76 MISG      30.42S

$$




USA.gov is the U.S. government's official web portal to all federal, state and local government web resources and services.